Regional Weather Roundup
Issued by NWS

Home | Current Version | Previous Version | Graphics & Text | Print | Product List | Glossary On
Versions: 1 2 3 4 5 6 7 8 9 10 11 12 13 14 15 16 17 18 19 20 21 22 23 24 25 26 27 28 29 30 31 32 33 34 35 36 37 38 39 40 41 42 43 44 45 46 47 48 49 50
000
ASUS43 KOAX 191310
RWRNE

WEATHER ROUNDUP FOR NEBRASKA
NATIONAL WEATHER SERVICE OMAHA NE
800 AM CDT TUE SEP 19 2017

NOTES: SATELLITE DATA IS BEING USED TO AUGMENT CLOUD COVER ABOVE
       12000 FEET.
       "FAIR" INDICATES FEW OR NO CLOUDS BELOW 12,000 FEET WITH NO
       SIGNIFICANT WEATHER AND/OR OBSTRUCTIONS TO VISIBILITY.


NEZ001>004-019>022-054>056-191400-
NEBRASKA PANHANDLE

CITY           SKY/WX    TMP DP  RH WIND       PRES   REMARKS
SCOTTSBLUFF    CLOUDY    54  50  86 E7        29.65F
ALLIANCE       CLOUDY    54  52  93 S8        29.65F
CHADRON        CLOUDY    63  47  55 SW9       29.59R
GORDON         FAIR      62  55  79 S5        29.63F
KIMBALL        CLOUDY    50  45  83 SW6       29.71S
SIDNEY         CLOUDY    50  47  89 NW3       29.69R
$$

NEZ057>060-069>072-079>082-191400-
SOUTHWEST NEBRASKA

CITY           SKY/WX    TMP DP  RH WIND       PRES   REMARKS
NORTH PLATTE   CLEAR     64  62  93 SE8       29.68F
IMPERIAL       CLOUDY    63  60  90 S10       29.68S
LEXINGTON      CLEAR     61  60  94 E7        29.70F FOG
MCCOOK         CLEAR     66  64  93 S17       29.67F
OGALLALA       CLOUDY    60  57  90 NE3       29.67F
$$

NEZ005>010-023>029-035>040-094-191400-
NORTH CENTRAL NEBRASKA

CITY           SKY/WX    TMP DP  RH WIND       PRES   REMARKS
VALENTINE      CLOUDY    64  59  83 E6        29.64F
AINSWORTH      CLEAR     60  60  99 S8        29.68F
BROKEN BOW     CLEAR     60  59  96 SE6       29.70F
O`NEILL        FOG       62  62 100 SE10      29.72S VSB 1
ORD            PTCLDY    60  58  92 SE7       29.71F FOG
THEDFORD       CLEAR     62  60  93 SE9       29.68F
$$

NEZ041-046>049-061>064-073>077-083>087-191400-
SOUTH CENTRAL NEBRASKA

CITY           SKY/WX    TMP DP  RH WIND       PRES   REMARKS
GRAND ISLAND   CLEAR     63  63 100 SE9       29.75F
AURORA         CLEAR     62  62 100 SE7       29.77S FOG
HASTINGS       CLEAR     64  62  93 SE7       29.76F
HEBRON         CLEAR     67  65  95 SE6       29.78S
HOLDREGE       CLEAR     64  62  93 SE9       29.72F FOG
KEARNEY        CLEAR     61  60  97 SE7       29.73F FOG
YORK           CLEAR     64  63  94 SE6       29.78S FOG
$$

NEZ011>018-030>034-042>045-191400-
NORTHEAST NEBRASKA

CITY           SKY/WX    TMP DP  RH WIND       PRES   REMARKS
NORFOLK        CLOUDY    65  64  97 SE13      29.77S FOG
ALBION         FOG       63  63  99 SE8       29.76F VSB 1/2
BLAIR          CLOUDY    67  66  96 S10       29.83S FOG
COLUMBUS       CLEAR     66  64  93 SE7       29.79F
FREMONT        CLOUDY    67  66  97 SE10      29.82R FOG
TEKAMAH        CLOUDY    67  65  93 SE8       29.81S FOG
WAYNE          CLOUDY    67  64  91 SE13      29.78F FOG
$$

NEZ050>053-065>068-078-088>093-191400-
SOUTHEAST NEBRASKA

CITY           SKY/WX    TMP DP  RH WIND       PRES   REMARKS
LINCOLN        CLEAR     68  65  90 SE10      29.81S
OMAHA EPPLEY   CLOUDY    68  65  90 SE12      29.83S FOG
BEATRICE       CLEAR     67  65  94 SE7       29.81S
FALLS CITY     CLEAR     66  65  96 SE6       29.84S FOG
NEBRASKA CITY  CLOUDY    66  66 100 SE9       29.85R FOG
PLATTSMOUTH    CLOUDY    67  67 100 SE12      29.85R FOG
$$

NEZ044-045-051>053-067-191400-
OMAHA AREA

CITY           SKY/WX    TMP DP  RH WIND       PRES   REMARKS
OMAHA EPPLEY   CLOUDY    68  65  90 SE12      29.83S FOG
BLAIR          CLOUDY    67  66  96 S10       29.83S FOG
FREMONT        CLOUDY    67  66  97 SE10      29.82R FOG
MILLARD        CLOUDY    69  67  94 SE8       29.83S FOG
OFFUTT AFB     CLOUDY    68  65  93 SE10      29.83R
PLATTSMOUTH    CLOUDY    67  67 100 SE12      29.85R FOG
WAHOO          CLOUDY    67  66  98 SE8       29.81S FOG
$$



USA.gov is the U.S. government's official web portal to all federal, state and local government web resources and services.